FW0344 Weather Reports


Display with metric or nautical units.
time (UTC)temp
F
wind
direction
speed
MPH
gust
MPH
rain 1hr
in
rain 24hr
in
rain mn
in
humidity
%
barometer
mb
20260510141804 60 44 10.0 22.0 0.00 0.00 0.00 60 1013.2
20260510140904 60 39 11.0 21.0 0.00 0.00 0.00 61 1013.3
20260510140004 60 32 9.0 19.0 0.00 0.00 0.00 61 1013.4
20260510135425 60 32 10.0 19.0 0.00 0.00 0.00 61 1013.5
20260510134504 61 40 8.0 17.0 0.00 0.00 0.00 60 1013.4
20260510133604 61 43 9.0 20.0 0.00 0.00 0.00 61 1013.5
20260510132704 60 47 11.0 21.0 0.00 0.00 0.00 60 1013.5
20260510131803 61 48 10.0 21.0 0.00 0.00 0.00 59 1013.7
20260510130903 61 43 9.0 16.0 0.00 0.00 0.00 60 1013.6
20260510130004 61 42 9.0 20.0 0.00 0.00 0.00 60 1013.7
20260510125404 61 44 9.0 16.0 0.00 0.00 0.00 60 1013.7
20260510124503 61 50 9.0 17.0 0.00 0.00 0.00 59 1013.8
20260510123603 62 55 8.0 17.0 0.00 0.00 0.00 59 1013.8
20260510122703 63 61 10.0 19.0 0.00 0.00 0.00 58 1013.9
20260510121803 62 58 10.0 19.0 0.00 0.00 0.00 58 1013.9
20260510120903 62 48 10.0 20.0 0.00 0.00 0.00 58 1014.2
20260510120004 62 44 11.0 19.0 0.00 0.00 0.00 58 1014.2
20260510115404 62 49 11.0 19.0 0.00 0.00 0.00 58 1014.3
20260510114504 61 48 10.0 20.0 0.00 0.00 0.00 60 1014.4
20260510113603 60 49 12.0 24.0 0.00 0.00 0.00 60 1014.4
20260510112703 60 53 12.0 21.0 0.00 0.00 0.00 60 1014.7
20260510111803 59 52 11.0 21.0 0.00 0.00 0.00 61 1014.8
20260510110924 59 55 12.0 22.0 0.00 0.00 0.00 60 1014.9
20260510110004 60 49 12.0 23.0 0.00 0.00 0.00 59 1014.8
20260510105424 61 47 12.0 23.0 0.00 0.00 0.00 58 1014.9
20260510104503 61 47 13.0 22.0 0.00 0.00 0.00 59 1014.9
20260510103624 62 49 13.0 22.0 0.00 0.00 0.00 57 1015.0
20260510102703 63 88 9.0 22.0 0.00 0.00 0.00 58 1015.1
20260510101824 61 55 11.0 21.0 0.00 0.00 0.00 60 1015.0
20260510100903 61 48 12.0 22.0 0.00 0.00 0.00 59 1015.0
20260510100003 61 40 9.0 16.0 0.00 0.00 0.00 61 1015.2
20260510095403 60 33 9.0 16.0 0.00 0.00 0.00 63 1015.2
20260510094503 60 40 10.0 19.0 0.00 0.00 0.00 65 1015.3
20260510093603 59 35 10.0 20.0 0.00 0.00 0.00 67 1015.4
20260510092703 58 43 9.0 20.0 0.00 0.00 0.00 69 1015.3
20260510091803 57 39 9.0 21.0 0.00 0.00 0.00 70 1015.4
20260510090903 57 41 9.0 16.0 0.00 0.00 0.00 71 1015.5
20260510090003 56 27 9.0 19.0 0.00 0.00 0.00 71 1015.6
20260510085403 56 28 9.0 17.0 0.00 0.00 0.00 72 1015.4
20260510084503 56 37 9.0 19.0 0.00 0.00 0.00 72 1015.7
20260510083603 55 38 9.0 19.0 0.00 0.00 0.00 73 1015.5
20260510082703 55 37 8.0 17.0 0.00 0.00 0.00 74 1015.6
20260510081803 54 44 10.0 21.0 0.00 0.00 0.00 74 1015.6
20260510080903 53 51 10.0 21.0 0.00 0.00 0.00 74 1015.5
20260510080003 54 50 9.0 17.0 0.00 0.00 0.00 74 1015.5
20260510075403 54 48 8.0 20.0 0.00 0.00 0.00 74 1015.5
20260510074524 54 47 10.0 19.0 0.00 0.00 0.00 74 1015.5
20260510073603 55 46 9.0 18.0 0.00 0.00 0.00 74 1015.6
20260510072703 54 47 11.0 19.0 0.00 0.00 0.00 75 1015.4
20260510071803 53 42 10.0 19.0 0.00 0.00 0.00 77 1015.4
20260510070903 52 48 9.0 19.0 0.00 0.00 0.00 78 1015.4
20260510070003 52 42 10.0 21.0 0.00 0.00 0.00 79 1015.3
20260510065403 52 39 10.0 19.0 0.00 0.00 0.00 79 1015.2
20260510064503 51 45 9.0 20.0 0.00 0.00 0.00 80 1015.2
20260510063606 51 43 9.0 20.0 0.00 0.00 0.00 80 1015.3
20260510062706 50 39 6.0 12.0 0.00 0.00 0.00 80 1015.4
20260510061806 50 37 7.0 17.0 0.00 0.00 0.00 80 1015.4
20260510060906 50 40 7.0 14.0 0.00 0.00 0.00 80 1015.2
20260510060006 50 33 6.0 14.0 0.00 0.00 0.00 80 1015.2
20260510055406 49 31 6.0 14.0 0.00 0.00 0.00 80 1015.3
20260510054506 49 47 7.0 12.0 0.00 0.00 0.00 80 1015.3
20260510053606 49 51 5.0 12.0 0.00 0.00 0.00 79 1015.4
20260510052706 49 40 5.0 11.0 0.00 0.00 0.00 79 1015.3
20260510051806 49 39 6.0 15.0 0.00 0.00 0.00 78 1015.3
20260510050906 49 37 6.0 14.0 0.00 0.00 0.00 78 1015.4
20260510050006 50 39 6.0 13.0 0.00 0.00 0.00 78 1015.3
20260510045406 50 37 6.0 14.0 0.00 0.00 0.00 77 1015.4
20260510044505 50 32 6.0 15.0 0.00 0.00 0.00 77 1015.3
20260510043605 50 36 6.0 12.0 0.00 0.00 0.00 76 1015.3
20260510042705 51 29 6.0 11.0 0.00 0.00 0.00 76 1015.2
20260510041827 51 41 5.0 10.0 0.00 0.00 0.00 75 1015.1
20260510040905 51 35 6.0 11.0 0.00 0.00 0.00 74 1015.3
20260510040006 52 39 6.0 13.0 0.00 0.00 0.00 74 1015.4
20260510035405 52 42 6.0 14.0 0.00 0.00 0.00 73 1015.4
20260510034506 52 35 5.0 11.0 0.00 0.00 0.00 72 1015.3
20260510033605 52 32 6.0 14.0 0.00 0.00 0.00 70 1015.4
20260510032705 52 42 6.0 14.0 0.00 0.00 0.00 69 1015.4
20260510031805 52 41 7.0 16.0 0.00 0.00 0.00 68 1015.6
20260510030905 53 35 6.0 16.0 0.00 0.00 0.00 67 1015.5
20260510030005 53 31 7.0 14.0 0.00 0.00 0.00 66 1015.3
20260510025405 54 34 6.0 12.0 0.00 0.00 0.00 65 1015.5
20260510024505 54 29 5.0 12.0 0.00 0.00 0.00 65 1015.4
20260510023605 55 39 5.0 11.0 0.00 0.00 0.00 64 1015.4
20260510022726 55 41 6.0 12.0 0.00 0.00 0.00 63 1015.5
20260510021805 55 47 6.0 15.0 0.00 0.00 0.00 62 1015.4
20260510020905 55 44 7.0 13.0 0.00 0.00 0.00 62 1015.4
20260510020005 56 40 7.0 16.0 0.00 0.00 0.00 60 1015.4
20260510015426 56 42 5.0 12.0 0.00 0.00 0.00 60 1015.5
20260510014505 56 43 5.0 10.0 0.00 0.00 0.00 59 1015.4
20260510013626 56 46 6.0 12.0 0.00 0.00 0.00 59 1015.4
20260510012705 56 46 6.0 11.0 0.00 0.00 0.00 58 1015.3
20260510011805 57 48 7.0 13.0 0.00 0.00 0.00 58 1015.4
20260510010905 57 50 9.0 21.0 0.00 0.00 0.00 58 1015.5
20260510010005 57 49 6.0 11.0 0.00 0.00 0.00 57 1015.4
20260510005405 57 50 6.0 12.0 0.00 0.00 0.00 57 1015.4
20260510004505 57 46 7.0 13.0 0.00 0.00 0.00 56 1015.5
20260510003605 57 49 6.0 12.0 0.00 0.00 0.00 56 1015.5
20260510002705 57 43 6.0 11.0 0.00 0.00 0.00 55 1015.4
20260510001805 58 39 6.0 11.0 0.00 0.00 0.00 55 1015.4
20260510000905 58 41 5.0 11.0 0.00 0.00 0.00 55 1015.4
20260510000005 58 37 5.0 11.0 0.00 0.00 0.00 56 1015.5
20260509235405 58 39 5.0 10.0 0.00 0.00 0.00 56 1015.4
20260509234505 58 48 5.0 11.0 0.00 0.00 0.00 56 1015.5
20260509233605 59 47 5.0 12.0 0.00 0.00 0.00 56 1015.4
20260509232705 59 47 6.0 12.0 0.00 0.00 0.00 56 1015.3
20260509231826 59 47 5.0 10.0 0.00 0.00 0.00 57 1015.3
20260509230926 59 46 4.0 9.0 0.00 0.00 0.00 57 1015.4
20260509230005 60 56 5.0 11.0 0.00 0.00 0.00 57 1015.4
20260509225405 59 56 6.0 11.0 0.00 0.00 0.00 57 1015.3
20260509224505 60 42 5.0 11.0 0.00 0.00 0.00 59 1015.1
20260509223605 60 46 6.0 12.0 0.00 0.00 0.00 60 1015.0
20260509222705 60 44 4.0 9.0 0.00 0.00 0.00 62 1015.1
20260509221826 60 48 4.0 8.0 0.00 0.00 0.00 62 1015.0
20260509220905 60 58 5.0 11.0 0.00 0.00 0.00 63 1015.0
20260509220005 60 58 4.0 9.0 0.00 0.00 0.00 67 1015.0
20260509215405 59 58 4.0 11.0 0.00 0.00 0.00 70 1014.9
20260509214526 59 50 3.0 9.0 0.00 0.00 0.00 72 1014.9
20260509213605 59 54 3.0 9.0 0.00 0.00 0.00 73 1014.9
20260509212726 59 79 1.0 5.0 0.00 0.00 0.00 73 1014.9
20260509211805 59 82 0.0 2.0 0.00 0.00 0.00 72 1014.9
20260509210905 59 0 0.0 1.0 0.00 0.00 0.00 72 1014.8
20260509210026 60 159 0.0 2.0 0.00 0.00 0.00 72 1014.9
20260509205405 60 150 0.0 4.0 0.00 0.00 0.00 71 1014.9
20260509204505 60 19 0.0 3.0 0.00 0.00 0.00 70 1014.7
20260509203626 60 37 1.0 4.0 0.00 0.00 0.00 69 1014.5
20260509202705 61 0 0.0 1.0 0.00 0.00 0.00 68 1014.4
20260509201805 61 0 0.0 1.0 0.00 0.00 0.00 68 1014.3
20260509200925 62 55 1.0 3.0 0.00 0.00 0.00 67 1014.2
20260509200005 62 55 1.0 3.0 0.00 0.00 0.00 66 1014.2
20260509195425 62 55 0.0 2.0 0.00 0.00 0.00 66 1014.2
20260509194505 63 55 0.0 2.0 0.00 0.00 0.00 65 1014.3
20260509193605 63 55 0.0 2.0 0.00 0.00 0.00 64 1014.1
20260509192725 64 55 1.0 2.0 0.00 0.00 0.00 63 1014.0
20260509191805 64 55 0.0 2.0 0.00 0.00 0.00 62 1013.9
20260509190905 64 55 1.0 3.0 0.00 0.00 0.00 61 1014.1
20260509190005 65 57 1.0 3.0 0.00 0.00 0.00 61 1014.0
20260509185426 65 51 2.0 3.0 0.00 0.00 0.00 61 1013.9
20260509184504 66 44 2.0 3.0 0.00 0.00 0.00 60 1014.0
20260509183625 66 91 2.0 3.0 0.00 0.00 0.00 58 1014.0
20260509182725 66 98 1.0 3.0 0.00 0.00 0.00 57 1014.0
20260509181804 66 99 2.0 4.0 0.00 0.00 0.00 57 1013.9
20260509180904 67 112 3.0 6.0 0.00 0.00 0.00 56 1014.0
20260509180025 67 102 2.0 6.0 0.00 0.00 0.00 55 1014.0
20260509175404 67 110 2.0 6.0 0.00 0.00 0.00 55 1014.0
20260509174504 68 109 3.0 7.0 0.00 0.00 0.00 54 1014.0
20260509173604 68 106 4.0 10.0 0.00 0.00 0.00 52 1013.9
20260509172704 68 95 4.0 8.0 0.00 0.00 0.00 53 1013.9
20260509171804 69 94 4.0 9.0 0.00 0.00 0.00 53 1013.8
20260509170904 69 94 4.0 8.0 0.00 0.00 0.00 53 1013.9
20260509170004 69 104 3.0 6.0 0.00 0.00 0.00 51 1014.0
20260509165404 69 102 3.0 6.0 0.00 0.00 0.00 52 1013.9
20260509164504 69 87 3.0 7.0 0.00 0.00 0.00 51 1014.1
20260509163604 70 65 4.0 8.0 0.00 0.00 0.00 50 1014.0
20260509162704 69 77 4.0 8.0 0.00 0.00 0.00 51 1014.1
20260509161804 69 89 5.0 10.0 0.00 0.00 0.00 50 1014.1
20260509160904 69 109 5.0 9.0 0.00 0.00 0.00 50 1014.1
20260509160004 70 101 5.0 11.0 0.00 0.00 0.00 49 1014.0
20260509155425 71 99 6.0 11.0 0.00 0.00 0.00 49 1014.1
20260509154504 71 108 4.0 10.0 0.00 0.00 0.00 50 1014.0
20260509153604 71 94 5.0 14.0 0.00 0.00 0.00 48 1014.0
20260509152704 70 105 6.0 11.0 0.00 0.00 0.00 50 1014.0
20260509151804 71 92 6.0 11.0 0.00 0.00 0.00 49 1014.1
20260509150904 72 109 7.0 15.0 0.00 0.00 0.00 48 1014.1
20260509150004 72 92 8.0 18.0 0.00 0.00 0.00 46 1014.3
20260509145404 73 95 7.0 12.0 0.00 0.00 0.00 46 1014.3
20260509144504 73 89 8.0 14.0 0.00 0.00 0.00 45 1014.3
20260509143604 73 108 7.0 13.0 0.00 0.00 0.00 46 1014.4
20260509142704 73 98 7.0 12.0 0.00 0.00 0.00 46 1014.5